GRUS-1B

导读

GRUS-1B是日本于2021年3月22日08:00发射的低轨遥感卫星,隶属于GRUS星座计划。作为四国集团合作研制的微卫星系列成员,它配备高分辨率光学相机,具备1米级地面成像能力,主要用于对地观测、灾害监测与城市遥感等任务。该卫星运行在太阳同步轨道,延续了日本发展低成本商业遥感星座的技术路线,服务全球地理信息获取需求。

基本信息
目录编号:
47934
目录名称:
GRUS-1B
国际标识:
2021-022C
轨道中心:
EARTH
卫星名称:
GRUS-1B
卫星全名:
--
卫星状态:
在轨 (已飞行2000 天)
发射日期:
2021-03-22 UTC
国别 :
日本 (JP)
星等 :
--
该卫星已列入 空间交会检测服务 Space Conjunction Data Service (SCDS) ,当前飞行风险评估等级: 无高风险
轨道信息
数据来源 国际轨道数据
星历时间: 2026-09-12T15:12:10+0800
10小时前
查看轨道信息
半长轴: 6948.444km
偏心率: 0.0017135
轨道倾角: 97.526°
近地点辐角 31.692°
升交点赤经 135.549°
平近点角 328.533°
近地点: 558.4km
远地点: 582.214km
周期: 96.071分钟
每日圈数: 14.988958
详细信息
使用方式:
暂无
2D轨道图
3D轨道图
轨道高度分析图
轨道倾角分析图
轨道综合分析图
查看轨道综合分析图
交会数据列表
事件ID 空间交会对象 最接近时刻(TCA) 交会距离 交会风险概率(CRP) 交会风险指数(CRI) 操作
CDM_260914-074604-793405-626722
GRUS-1B (47934)
2026-09-14T
07:46:17+0000
1.441 km
极远距离
7.461929E-6 低风险 0.52
与全量物体交会距离演化趋势
与全量物体交会风险概率演化趋势